Welcome to Northern Hawkes Bay. New Zealand.
PWS Header
      nz Flag



Hit Counter


W3C Valid W3C Valid logo


    Wairoa

Select any of the Stations below to visit their websites.










Historic Data from Weather Underground
Select the location of interest below. Wairoa is the default. Please have patience, this Data is slow to load in.
Northern Hawkes Bay Historical Data
Daily Summary for May 11, 2017 Units:  English    Metric   Both
« Previous Day
Next Day »
Daily Weekly Monthly Yearly Custom
  High: Low: Average:
Temperature: 66.4 °F 54.1 °F 62.2 °F
Dew Point: 58.6 °F 50.4 °F 54 °F
Humidity: 95% 62% 75%
Wind Speed: 15.2mph 0mph 4.6mph
Wind Gust: 25.9mph - -
Wind- - ESE
Pressure: 30.3 in 29.8 in -
Precipitation: 0 in    
Historical Graphs
 
 
Tabular Data for May 11, 2017
Time Temperature Dew Point Pressure Wind Wind Speed Wind Gust Humidity Rainfall Rate (Hourly) solar
00:05 55.4 °F 53.8 °F 30.3 in Calm     94% 0 in 0 W/m2
02:47 54.7 °F 52.7 °F 30.2 in Calm     93% 0 in 0 W/m2
02:52 54.7 °F 52.7 °F 30.2 in Calm     93% 0 in 0 W/m2
02:57 54.5 °F 52.5 °F 30.2 in Calm     93% 0 in 0 W/m2
03:02 54.5 °F 52.5 °F 30.2 in Calm     93% 0 in 0 W/m2
03:07 54.5 °F 52.9 °F 30.2 in Calm     94% 0 in 0 W/m2
03:12 54.3 °F 52.5 °F 30.2 in Calm     94% 0 in 0 W/m2
03:17 54.3 °F 52.5 °F 30.2 in Calm     94% 0 in 0 W/m2
03:22 54.1 °F 52.5 °F 30.2 in Calm     94% 0 in 0 W/m2
03:27 54.1 °F 52.5 °F 30.2 in Calm     94% 0 in 0 W/m2
03:32 54.1 °F 52.5 °F 30.2 in Calm     94% 0 in 0 W/m2
03:37 54.5 °F 53.1 °F 30.2 in Calm     95% 0 in 0 W/m2
03:42 54.7 °F 53.2 °F 30.2 in Calm     95% 0 in 0 W/m2
03:43 54.7 °F 53.2 °F 30.2 in Calm     95% 0 in 0 W/m2
03:48 54.7 °F 53.2 °F 30.2 in Calm     95% 0 in 0 W/m2
03:53 54.7 °F 53.2 °F 30.2 in Calm     95% 0 in 0 W/m2
03:58 54.7 °F 53.1 °F 30.2 in Calm     94% 0 in 0 W/m2
04:03 54.5 °F 52.9 °F 30.2 in Calm     94% 0 in 0 W/m2
04:08 54.7 °F 53.2 °F 30.2 in Calm     95% 0 in 0 W/m2
04:13 54.9 °F 53.4 °F 30.2 in Calm     95% 0 in 0 W/m2
04:18 55 °F 53.6 °F 30.2 in Calm     95% 0 in 0 W/m2
04:23 55 °F 53.6 °F 30.2 in Calm     95% 0 in 0 W/m2
04:28 55 °F 53.6 °F 30.2 in Calm     95% 0 in 0 W/m2
04:33 55 °F 53.6 °F 30.2 in Calm     95% 0 in 0 W/m2
04:38 55.2 °F 53.8 °F 30.2 in Calm     95% 0 in 0 W/m2
04:59 55.6 °F 54 °F 30.2 in Calm     94% 0 in 0 W/m2
05:04 55.6 °F 54 °F 30.2 in Calm     94% 0 in 0 W/m2
05:09 55.6 °F 53.6 °F 30.2 in Calm     93% 0 in 0 W/m2
05:14 55.6 °F 53.6 °F 30.2 in Calm     93% 0 in 0 W/m2
05:19 55.4 °F 53.4 °F 30.2 in Calm     93% 0 in 0 W/m2
05:25 55.6 °F 53.6 °F 30.2 in Calm     93% 0 in 0 W/m2
05:30 55.6 °F 53.6 °F 30.2 in Calm     93% 0 in 0 W/m2
05:35 56.1 °F 54.3 °F 30.2 in Calm     94% 0 in 0 W/m2
05:40 56.8 °F 54.9 °F 30.2 in NNE 0.7 mph 4.5 mph 93% 0 in 0 W/m2
05:45 57.6 °F 54.7 °F 30.2 in NNE 0.7 mph 4.5 mph 90% 0 in 0 W/m2
05:50 57.2 °F 53.8 °F 30.2 in Calm   3.1 mph 88% 0 in 0 W/m2
05:55 56.8 °F 53.6 °F 30.2 in Calm   2.2 mph 89% 0 in 0 W/m2
06:00 56.8 °F 53.6 °F 30.2 in NW 1.6 mph 3.1 mph 89% 0 in 0 W/m2
06:05 56.8 °F 53.6 °F 30.2 in Calm   3.1 mph 89% 0 in 0 W/m2
06:10 56.8 °F 53.6 °F 30.2 in Calm   3.1 mph 89% 0 in 0 W/m2
06:15 56.8 °F 53.6 °F 30.2 in Calm     89% 0 in 0 W/m2
06:20 57 °F 53.8 °F 30.2 in NNW 3.1 mph 4.5 mph 89% 0 in 0 W/m2
06:25 57.2 °F 53.8 °F 30.2 in Calm   4.5 mph 88% 0 in 0 W/m2
06:30 57.2 °F 53.4 °F 30.2 in Calm   4.5 mph 87% 0 in 0 W/m2
06:35 57.2 °F 53.4 °F 30.2 in Calm     87% 0 in 0 W/m2
06:40 57.2 °F 53.4 °F 30.2 in North 1.6 mph 2.2 mph 87% 0 in 0 W/m2
06:45 57.4 °F 53.6 °F 30.2 in North 0.7 mph 3.1 mph 87% 0 in 0 W/m2
06:50 57.6 °F 53.4 °F 30.2 in Calm   3.1 mph 86% 0 in 0 W/m2
06:55 57.6 °F 53.4 °F 30.2 in Calm   3.1 mph 86% 0 in 0 W/m2
07:01 57.4 °F 53.2 °F 30.2 in Calm     86% 0 in 0 W/m2
07:06 57 °F 53.2 °F 30.2 in Calm     87% 0 in 0 W/m2
07:11 56.8 °F 53.1 °F 30.2 in Calm     87% 0 in 0 W/m2
07:16 56.8 °F 53.1 °F 30.2 in Calm     87% 0 in 1 W/m2
07:21 57 °F 53.4 °F 30.2 in Calm     88% 0 in 2 W/m2
07:26 56.8 °F 53.2 °F 30.2 in NW 0.7 mph 3.1 mph 88% 0 in 4 W/m2
07:31 57.2 °F 53.4 °F 30.2 in NNW 1.6 mph 3.1 mph 87% 0 in 6 W/m2
07:36 57.7 °F 53.2 °F 30.2 in North 0.7 mph 5.4 mph 85% 0 in 9 W/m2
07:41 58.6 °F 53.8 °F 30.2 in North 3.8 mph 6.9 mph 84% 0 in 13 W/m2
07:46 60.1 °F 53.2 °F 30.2 in North 3.8 mph 9.2 mph 78% 0 in 13 W/m2
07:51 60.8 °F 52.5 °F 30.2 in North 3.8 mph 9.2 mph 74% 0 in 14 W/m2
07:56 61.3 °F 52.5 °F 30.2 in NNE 2.2 mph 9.2 mph 73% 0 in 13 W/m2
08:01 61.5 °F 52.3 °F 30.2 in NNE 3.8 mph 13 mph 72% 0 in 14 W/m2
08:03 61.5 °F 52.3 °F 30.2 in NNE 6.9 mph 13 mph 72% 0 in 15 W/m2
08:22 61.7 °F 52.5 °F 30.2 in NNW 5.4 mph 12.1 mph 72% 0 in 20 W/m2
08:27 61.7 °F 52.5 °F 30.2 in North 3.8 mph 10.7 mph 72% 0 in 25 W/m2
08:32 61.7 °F 53.1 °F 30.2 in North 4.5 mph 10.7 mph 73% 0 in 29 W/m2
08:37 61.7 °F 52.5 °F 30.2 in North 1.6 mph 10.7 mph 72% 0 in 30 W/m2
08:42 61.9 °F 52.9 °F 30.2 in NNE 3.1 mph 9.2 mph 72% 0 in 30 W/m2
08:47 61.9 °F 53.1 °F 30.2 in North 0.7 mph 6.9 mph 73% 0 in 31 W/m2
08:52 61.9 °F 53.1 °F 30.2 in North 3.8 mph 9.8 mph 73% 0 in 31 W/m2
08:57 61.9 °F 53.1 °F 30.2 in North 1.6 mph 9.8 mph 73% 0 in 30 W/m2
09:02 62.1 °F 52.9 °F 30.2 in North 2.2 mph 8.3 mph 72% 0 in 31 W/m2
09:07 62.1 °F 53.2 °F 30.2 in North 3.8 mph 8.3 mph 73% 0 in 35 W/m2
09:12 62.2 °F 53.1 °F 30.2 in NNE 3.8 mph 7.6 mph 72% 0 in 41 W/m2
09:17 62.2 °F 53.1 °F 30.2 in NNE 2.2 mph 7.6 mph 72% 0 in 40 W/m2
09:22 62.2 °F 53.1 °F 30.2 in North 1.6 mph 7.6 mph 72% 0 in 48 W/m2
09:27 62.2 °F 53.1 °F 30.2 in NNW 2.2 mph 8.3 mph 72% 0 in 58 W/m2
09:32 62.2 °F 53.1 °F 30.2 in NNW 2.2 mph 9.2 mph 72% 0 in 71 W/m2
09:37 62.4 °F 53.2 °F 30.2 in North 3.1 mph 9.2 mph 72% 0 in 70 W/m2
09:42 62.8 °F 52.9 °F 30.2 in North 2.2 mph 9.8 mph 70% 0 in 59 W/m2
09:47 63 °F 52.5 °F 30.2 in NNE 5.4 mph 9.8 mph 69% 0 in 51 W/m2
09:52 63 °F 52.5 °F 30.2 in North 3.8 mph 9.8 mph 69% 0 in 45 W/m2
09:57 63 °F 53.1 °F 30.2 in NW 2.2 mph 8.3 mph 70% 0 in 59 W/m2
10:02 62.8 °F 53.2 °F 30.2 in North 3.8 mph 7.6 mph 71% 0 in 76 W/m2
10:07 63 °F 53.1 °F 30.1 in NNE 2.2 mph 7.6 mph 70% 0 in 83 W/m2
10:12 63.1 °F 53.2 °F 30.2 in North 0.7 mph 7.6 mph 70% 0 in 92 W/m2
10:17 63.3 °F 53.4 °F 30.2 in NNW 6 mph 8.3 mph 70% 0 in 83 W/m2
10:22 63.3 °F 53.4 °F 30.2 in NNW 1.6 mph 8.3 mph 70% 0 in 74 W/m2
10:27 63.5 °F 53.6 °F 30.2 in NNW 2.2 mph 8.3 mph 70% 0 in 75 W/m2
10:32 63.3 °F 53.4 °F 30.1 in North 3.8 mph 7.6 mph 70% 0 in 69 W/m2
10:37 63.5 °F 53.6 °F 30.1 in North 2.2 mph 7.6 mph 70% 0 in 72 W/m2
10:42 63.3 °F 53.8 °F 30.1 in Calm   7.6 mph 71% 0 in 63 W/m2
10:47 63.1 °F 53.6 °F 30.1 in North 1.6 mph 4.5 mph 71% 0 in 52 W/m2
10:52 62.8 °F 53.6 °F 30.1 in NNE 5.4 mph 8.3 mph 72% 0 in 52 W/m2
10:57 62.6 °F 53.8 °F 30.1 in NNE 3.1 mph 8.3 mph 73% 0 in 45 W/m2
11:02 62.4 °F 54 °F 30.1 in Calm   8.3 mph 74% 0 in 42 W/m2
11:07 62.4 °F 54 °F 30.1 in Calm   4.5 mph 74% 0 in 40 W/m2
11:12 62.4 °F 54 °F 30.1 in NE 2.2 mph 3.8 mph 74% 0 in 40 W/m2
11:17 62.4 °F 53.8 °F 30.1 in NNW 2.2 mph 6.9 mph 73% 0 in 45 W/m2
11:22 62.4 °F 53.8 °F 30.1 in North 2.2 mph 6.9 mph 73% 0 in 43 W/m2
11:27 62.4 °F 53.2 °F 30.1 in North 6 mph 9.2 mph 72% 0 in 38 W/m2
11:32 62.8 °F 52.5 °F 30.1 in North 5.4 mph 9.8 mph 69% 0 in 34 W/m2
11:37 62.8 °F 52.5 °F 30.1 in NNE 3.8 mph 9.8 mph 69% 0 in 32 W/m2
11:42 62.8 °F 52.2 °F 30.1 in NNE 3.1 mph 9.8 mph 68% 0 in 32 W/m2
11:47 62.6 °F 51.4 °F 30.1 in NNE 3.1 mph 9.8 mph 67% 0 in 33 W/m2
11:52 62.6 °F 51.1 °F 30.1 in NNE 0.7 mph 8.3 mph 66% 0 in 35 W/m2
11:57 62.6 °F 51.1 °F 30.1 in NNE 3.1 mph 8.3 mph 66% 0 in 36 W/m2
11:58 62.6 °F 51.1 °F 30.1 in NNE 3.1 mph 8.3 mph 66% 0 in 36 W/m2
12:03 62.4 °F 51.3 °F 30.1 in NNE 5.4 mph 8.3 mph 67% 0 in 36 W/m2
12:20 62.6 °F 51.1 °F 30.1 in NNE 6 mph 9.8 mph 66% 0 in 36 W/m2
12:25 63 °F 51.1 °F 30.1 in NE 3.8 mph 9.2 mph 65% 0 in 37 W/m2
12:30 63 °F 50.5 °F 30.1 in Calm   9.2 mph 64% 0 in 40 W/m2
12:35 63 °F 50.5 °F 30.1 in ENE 5.4 mph 7.6 mph 64% 0 in 42 W/m2
12:40 63.1 °F 50.4 °F 30.1 in ENE 3.8 mph 7.6 mph 63% 0 in 41 W/m2
12:45 63 °F 50.5 °F 30.1 in ENE 3.1 mph 6.9 mph 64% 0 in 39 W/m2
12:50 62.8 °F 50.4 °F 30.1 in ENE 4.5 mph 9.2 mph 64% 0 in 42 W/m2
12:55 62.8 °F 50.4 °F 30.1 in ENE 6 mph 9.2 mph 64% 0 in 42 W/m2
13:00 63 °F 50.5 °F 30.1 in NE 2.2 mph 8.3 mph 64% 0 in 41 W/m2
13:05 62.8 °F 50.4 °F 30 in NE 4.5 mph 8.3 mph 64% 0 in 40 W/m2
13:10 62.8 °F 50.4 °F 30 in NE 1.6 mph 8.3 mph 64% 0 in 41 W/m2
13:15 62.8 °F 50.9 °F 30 in ENE 2.2 mph 6.9 mph 65% 0 in 41 W/m2
13:20 62.8 °F 50.4 °F 30 in ENE 3.8 mph 6 mph 64% 0 in 47 W/m2
13:25 63 °F 51.1 °F 30 in ENE 3.1 mph 6 mph 65% 0 in 58 W/m2
13:30 63 °F 51.1 °F 30 in ENE 1.6 mph 5.4 mph 65% 0 in 71 W/m2
13:49 64.8 °F 52.7 °F 30 in Calm   3.8 mph 65% 0 in 133 W/m2
13:54 64.9 °F 52.9 °F 30 in NE 2.2 mph 3.8 mph 65% 0 in 125 W/m2
13:59 64.9 °F 52.5 °F 30 in NE 0.7 mph 4.5 mph 64% 0 in 169 W/m2
14:04 65.3 °F 52.9 °F 30 in NE 4.5 mph 7.6 mph 64% 0 in 215 W/m2
14:09 65.5 °F 53.4 °F 30 in NE 2.2 mph 7.6 mph 65% 0 in 233 W/m2
14:14 66.2 °F 53.2 °F 30 in NE 3.1 mph 8.3 mph 63% 0 in 197 W/m2
14:19 66.4 °F 53.1 °F 30 in NNE 4.5 mph 8.3 mph 62% 0 in 148 W/m2
14:24 66.4 °F 53.1 °F 30 in NNE 4.5 mph 9.8 mph 62% 0 in 148 W/m2
14:29 66.4 °F 53.1 °F 30 in NNE 2.2 mph 10.7 mph 62% 0 in 123 W/m2
14:34 66.4 °F 53.4 °F 30 in North 3.1 mph 10.7 mph 63% 0 in 92 W/m2
14:39 66.2 °F 53.2 °F 30 in NNE 4.5 mph 9.2 mph 63% 0 in 94 W/m2
14:44 66 °F 54 °F 30 in NE 5.4 mph 9.2 mph 65% 0 in 96 W/m2
14:49 66.2 °F 53.8 °F 30 in NE 0.7 mph 8.3 mph 64% 0 in 127 W/m2
14:54 66.4 °F 54 °F 30 in NNE 2.2 mph 8.3 mph 64% 0 in 138 W/m2
14:59 66.4 °F 54 °F 30 in NNE 4.5 mph 9.2 mph 64% 0 in 105 W/m2
15:04 66.4 °F 54.3 °F 30 in NNE 1.6 mph 9.2 mph 65% 0 in 97 W/m2
15:09 66.2 °F 54.1 °F 30 in North 6.9 mph 10.7 mph 65% 0 in 82 W/m2
15:14 66 °F 54.3 °F 30 in North 3.8 mph 14.5 mph 66% 0 in 64 W/m2
15:19 65.8 °F 54.1 °F 30 in North 5.4 mph 14.5 mph 66% 0 in 53 W/m2
15:24 65.7 °F 54.3 °F 30 in North 6.9 mph 15.9 mph 67% 0 in 52 W/m2
15:29 65.7 °F 54.3 °F 30 in NNE 6.9 mph 15.9 mph 67% 0 in 53 W/m2
15:34 65.7 °F 54 °F 30 in NNE 6.9 mph 15.9 mph 66% 0 in 54 W/m2
15:39 65.7 °F 54.3 °F 30 in NNE 7.6 mph 15.9 mph 67% 0 in 55 W/m2
15:44 65.5 °F 54.3 °F 30 in NNE 7.6 mph 17.4 mph 67% 0 in 57 W/m2
15:49 65.5 °F 54.3 °F 30 in NNE 6 mph 17.4 mph 67% 0 in 48 W/m2
15:54 65.3 °F 54.1 °F 30 in North 9.8 mph 19.7 mph 67% 0 in 48 W/m2
15:59 65.3 °F 54.1 °F 30 in North 9.2 mph 19.7 mph 67% 0 in 43 W/m2
16:04 65.3 °F 54.1 °F 30 in North 7.6 mph 16.8 mph 67% 0 in 38 W/m2
16:09 65.3 °F 54.1 °F 30 in North 10.7 mph 16.8 mph 67% 0 in 44 W/m2
16:14 65.3 °F 54.1 °F 30 in North 11.4 mph 18.3 mph 67% 0 in 50 W/m2
16:19 65.1 °F 54 °F 30 in North 11.4 mph 18.3 mph 67% 0 in 51 W/m2
16:24 65.3 °F 54.1 °F 29.9 in North 10.7 mph 19.7 mph 67% 0 in 39 W/m2
16:29 65.1 °F 54 °F 30 in North 10.7 mph 22.1 mph 67% 0 in 35 W/m2
16:35 64.9 °F 54.1 °F 29.9 in North 11.4 mph 22.1 mph 68% 0 in 29 W/m2
16:40 64.8 °F 54 °F 29.9 in North 9.8 mph 21.3 mph 68% 0 in 26 W/m2
16:45 64.8 °F 54 °F 29.9 in North 6.9 mph 21.3 mph 68% 0 in 20 W/m2
16:50 64.6 °F 53.8 °F 29.9 in North 10.7 mph 21.3 mph 68% 0 in 18 W/m2
16:55 64.6 °F 53.8 °F 29.9 in North 8.3 mph 20.6 mph 68% 0 in 12 W/m2
17:00 64.4 °F 53.6 °F 29.9 in NNW 10.7 mph 16.8 mph 68% 0 in 10 W/m2
17:05 64.2 °F 53.4 °F 29.9 in North 9.2 mph 16.8 mph 68% 0 in 4 W/m2
17:07 64.2 °F 53.4 °F 29.9 in North 12.1 mph 19.7 mph 68% 0 in 2 W/m2
17:12 64 °F 52.9 °F 29.9 in North 10.7 mph 19.7 mph 67% 0 in 0 W/m2
17:17 64 °F 52.9 °F 29.9 in North 9.2 mph 24.4 mph 67% 0 in 0 W/m2
17:22 64 °F 52.9 °F 29.9 in North 8.3 mph 24.4 mph 67% 0 in 0 W/m2
17:27 63.9 °F 52.7 °F 29.9 in North 6.9 mph 15.9 mph 67% 0 in 0 W/m2
17:32 64 °F 52.5 °F 29.9 in North 8.3 mph 18.3 mph 66% 0 in 0 W/m2
17:37 64 °F 52.5 °F 29.9 in NNE 13.6 mph 22.1 mph 66% 0 in 0 W/m2
17:42 64.2 °F 52.2 °F 29.9 in North 10.7 mph 22.1 mph 65% 0 in 0 W/m2
17:47 64.2 °F 52.2 °F 29.9 in North 6.9 mph 19.7 mph 65% 0 in 0 W/m2
17:52 64.2 °F 52.2 °F 29.9 in North 11.4 mph 19 mph 65% 0 in 0 W/m2
17:57 64.4 °F 52.3 °F 29.9 in North 15.2 mph 21.3 mph 65% 0 in 0 W/m2
18:02 64.4 °F 52.3 °F 29.9 in North 8.3 mph 21.3 mph 65% 0 in 0 W/m2
18:07 64.4 °F 52.3 °F 29.9 in North 12.1 mph 23.5 mph 65% 0 in 0 W/m2
18:12 64.4 °F 52.9 °F 29.9 in North 9.2 mph 23.5 mph 66% 0 in 0 W/m2
18:17 64.4 °F 52.9 °F 29.9 in North 9.8 mph 21.3 mph 66% 0 in 0 W/m2
18:22 64.4 °F 53.2 °F 29.9 in NNE 7.6 mph 17.4 mph 67% 0 in 0 W/m2
18:27 64.6 °F 53.4 °F 29.9 in NNE 5.4 mph 19 mph 67% 0 in 0 W/m2
18:32 64.6 °F 53.4 °F 29.9 in North 8.3 mph 21.3 mph 67% 0 in 0 W/m2
18:37 64.8 °F 53.6 °F 29.9 in North 6.9 mph 21.3 mph 67% 0 in 0 W/m2
18:42 64.6 °F 53.4 °F 29.9 in North 7.6 mph 20.6 mph 67% 0 in 0 W/m2
18:47 64.6 °F 53.4 °F 29.9 in North 8.3 mph 20.6 mph 67% 0 in 0 W/m2
18:52 64.8 °F 53.6 °F 29.9 in North 7.6 mph 16.8 mph 67% 0 in 0 W/m2
18:57 64.8 °F 53.6 °F 29.9 in NNE 5.4 mph 15.2 mph 67% 0 in 0 W/m2
19:02 64.4 °F 53.2 °F 29.9 in North 9.2 mph 16.8 mph 67% 0 in 0 W/m2
19:07 64.6 °F 53.8 °F 29.9 in North 11.4 mph 17.4 mph 68% 0 in 0 W/m2
19:12 64.8 °F 54 °F 29.9 in NNE 8.3 mph 17.4 mph 68% 0 in 0 W/m2
19:17 64.8 °F 54 °F 29.9 in NNE 8.3 mph 15.9 mph 68% 0 in 0 W/m2
19:22 64.6 °F 53.8 °F 29.9 in North 6 mph 15.9 mph 68% 0 in 0 W/m2
19:27 64.6 °F 53.8 °F 29.9 in NNE 4.5 mph 15.2 mph 68% 0 in 0 W/m2
19:32 64.6 °F 54.1 °F 29.9 in NNE 7.6 mph 14.5 mph 69% 0 in 0 W/m2
19:37 64.8 °F 54.3 °F 29.9 in NNE 9.2 mph 15.2 mph 69% 0 in 0 W/m2
19:42 64.6 °F 54.1 °F 29.9 in NNE 3.1 mph 19.7 mph 69% 0 in 0 W/m2
19:47 64.6 °F 54.7 °F 29.9 in NNE 5.4 mph 19.7 mph 70% 0 in 0 W/m2
19:52 64.6 °F 54.7 °F 29.9 in NNE 9.2 mph 13.6 mph 70% 0 in 0 W/m2
19:57 64.8 °F 54.9 °F 29.9 in NNE 4.5 mph 16.8 mph 70% 0 in 0 W/m2
20:02 64.8 °F 54.9 °F 29.8 in NNE 8.3 mph 16.8 mph 70% 0 in 0 W/m2
20:07 64.8 °F 54.9 °F 29.8 in NNE 8.3 mph 19 mph 70% 0 in 0 W/m2
20:12 64.9 °F 54.9 °F 29.8 in NNE 12.1 mph 19 mph 70% 0 in 0 W/m2
20:17 64.9 °F 54.9 °F 29.8 in NNE 10.7 mph 15.2 mph 70% 0 in 0 W/m2
20:22 64.9 °F 55.2 °F 29.8 in NNE 3.8 mph 15.2 mph 71% 0 in 0 W/m2
20:27 64.8 °F 55.2 °F 29.8 in North 6.9 mph 13.6 mph 71% 0 in 0 W/m2
20:32 64.9 °F 55.2 °F 29.8 in North 3.1 mph 13.6 mph 71% 0 in 0 W/m2
20:37 64.9 °F 55.8 °F 29.8 in NNE 3.8 mph 15.2 mph 72% 0 in 0 W/m2
20:42 64.9 °F 55.8 °F 29.8 in NNE 6 mph 15.2 mph 72% 0 in 0 W/m2
20:47 64.9 °F 55.8 °F 29.8 in North 8.3 mph 13.6 mph 72% 0 in 0 W/m2
20:52 65.1 °F 56.3 °F 29.8 in NNE 12.1 mph 15.2 mph 73% 0 in 0 W/m2
20:57 65.3 °F 56.8 °F 29.8 in NNE 6 mph 15.9 mph 74% 0 in 0 W/m2
21:02 65.3 °F 56.8 °F 29.8 in NNE 9.2 mph 16.8 mph 74% 0 in 0 W/m2
21:07 65.3 °F 57.2 °F 29.8 in NNE 6 mph 16.8 mph 75% 0 in 0 W/m2
21:12 65.3 °F 57.2 °F 29.8 in North 6.9 mph 12.1 mph 75% 0 in 0 W/m2
21:17 65.5 °F 57.4 °F 29.8 in NNE 6.9 mph 15.9 mph 75% 0 in 0 W/m2
21:22 65.7 °F 57.6 °F 29.8 in NNE 9.2 mph 15.9 mph 75% 0 in 0 W/m2
21:27 65.8 °F 57.7 °F 29.8 in North 10.7 mph 18.3 mph 75% 0 in 0 W/m2
21:32 66 °F 57.9 °F 29.8 in North 10.7 mph 18.3 mph 75% 0 in 0 W/m2
21:37 66 °F 57.9 °F 29.8 in North 4.5 mph 17.4 mph 75% 0 in 0 W/m2
21:42 66.2 °F 57.7 °F 29.8 in NNE 9.8 mph 25.9 mph 74% 0 in 0 W/m2
21:47 66.2 °F 57.7 °F 29.8 in NNE 8.3 mph 25.9 mph 74% 0 in 0 W/m2
21:52 66.2 °F 57.7 °F 29.8 in NNE 9.8 mph 19.7 mph 74% 0 in 0 W/m2
21:57 66.2 °F 57.7 °F 29.8 in NNE 8.3 mph 15.2 mph 74% 0 in 0 W/m2
22:02 66.2 °F 58.1 °F 29.8 in NNE 9.8 mph 15.2 mph 75% 0 in 0 W/m2
22:07 66.2 °F 58.1 °F 29.8 in NNE 9.8 mph 16.8 mph 75% 0 in 0 W/m2
22:12 66.4 °F 58.3 °F 29.8 in NNE 13 mph 20.6 mph 75% 0 in 0 W/m2
22:17 66.4 °F 58.3 °F 29.8 in NNE 9.8 mph 20.6 mph 75% 0 in 0 W/m2
22:22 66.4 °F 58.3 °F 29.8 in NNE 8.3 mph 20.6 mph 75% 0 in 0 W/m2
22:27 66.2 °F 58.1 °F 29.8 in NE 9.2 mph 15.2 mph 75% 0 in 0 W/m2
22:32 66.2 °F 58.1 °F 29.8 in NNE 6 mph 15.2 mph 75% 0 in 0 W/m2
22:37 66.2 °F 58.1 °F 29.8 in North 4.5 mph 13.6 mph 75% 0 in 0 W/m2
22:42 66 °F 58.3 °F 29.8 in NNW 3.8 mph 12.1 mph 76% 0 in 0 W/m2
22:47 65.8 °F 58.5 °F 29.8 in North 4.5 mph 8.3 mph 77% 0 in 0 W/m2
22:52 65.8 °F 58.5 °F 29.8 in North 3.8 mph 13 mph 77% 0 in 0 W/m2
22:57 65.8 °F 58.5 °F 29.8 in NNE 5.4 mph 13 mph 77% 0 in 0 W/m2
23:02 65.8 °F 58.5 °F 29.8 in NNE 3.1 mph 10.7 mph 77% 0 in 0 W/m2
23:07 65.8 °F 58.5 °F 29.8 in NNW 2.2 mph 15.2 mph 77% 0 in 0 W/m2
23:12 65.8 °F 58.5 °F 29.8 in NNW 6 mph 15.2 mph 77% 0 in 0 W/m2
23:17 65.8 °F 58.5 °F 29.8 in North 3.8 mph 11.4 mph 77% 0 in 0 W/m2
23:22 65.7 °F 58.6 °F 29.8 in NNW 3.8 mph 7.6 mph 78% 0 in 0 W/m2
23:27 65.3 °F 58.3 °F 29.8 in West 10.7 mph 15.2 mph 78% 0 in 0 W/m2
23:32 63.3 °F 56.7 °F 29.8 in WSW 9.2 mph 19 mph 79% 0 in 0 W/m2
23:37 61.7 °F 56.8 °F 29.8 in WSW 15.2 mph 19 mph 84% 0 in 0 W/m2
23:42 60.1 °F 56.5 °F 29.8 in SW 15.2 mph 25.1 mph 88% 0 in 0 W/m2
Northern Hawkes Bay. New Zealand Historic Data
Compliments of Weather Underground - 2 mb